Regional Weather Roundup
Issued by NWS Cleveland, OH

Home | Current Version | Previous Version | Text Only | Print | Product List | Glossary Off
Versions: 1 2 3 4 5 6 7 8 9 10 11 12 13 14 15 16 17 18 19 20 21 22 23 24 25 26 27 28 29 30 31 32 33 34 35 36 37 38 39 40 41 42 43 44 45 46 47 48 49 50

000
ASUS41 KCLE 280300
RWRCLE
OHIO REGIONAL WEATHER ROUNDUP
NATIONAL WEATHER SERVICE WILMINGTON, OH
1000 PM EST FRI FEB 27 2015

NOTE: "FAIR" INDICATES FEW OR NO CLOUDS BELOW 12,000 FEET WITH NO
SIGNIFICANT WEATHER AND/OR OBSTRUCTIONS TO VISIBILITY.

OHZ001>008-015>018-024>027-034-035-043-044-280400-
   NORTHWEST OHIO

CITY           SKY/WX    TMP DP  RH WIND       PRES   REMARKS
DEFIANCE       CLEAR      3  -5  69 S3        30.68R
FINDLAY        CLEAR      1  -7  68 S7        30.66R WCI -12
TOLEDO EXPRESS CLEAR      4  -5  66 S5        30.66R WCI  -5
TOLEDO EXEC    FAIR       7  -5  57 S6        30.68R WCI  -3
LIMA           PTCLDY     7  -5  57 S7        30.65R WCI  -5
$$

OHZ009>014-019>023-028>033-038-089-280400-
   NORTHEAST OHIO

CITY           SKY/WX    TMP DP  RH WIND       PRES   REMARKS
CLE-HOPKINS    CLEAR      7  -3  64 S6        30.68R WCI  -3
CLE-LAKEFRONT  CLEAR     10  -3  55 SW8       30.66R WCI  -2
CUY CO. ARPT   CLEAR      3  -2  78 S5        30.64R WCI  -6
LORAIN-ELYRIA  CLEAR      2  -5  72 SW5       30.66R WCI  -8
ASHTABULA      CLEAR     -4 -10  75 CALM      30.64R
AKRON-CANTON   PTCLDY     3  -6  66 W5        30.62R WCI  -6
WOOSTER        NOT AVBL
MANSFIELD      MOCLDY     5  -4  66 SW5       30.62R WCI  -4
YOUNGSTOWN     FAIR       3  -5  69 CALM      30.62R
$$

OHZ042-051>053-060>062-070>072-077>081-280400-
  SOUTHWEST OHIO

CITY           SKY/WX    TMP DP  RH WIND       PRES   REMARKS
CINC-COVINGTON CLOUDY    15   2  56 N6        30.64S WCI   6
CINC-LUNKEN    MOCLDY    14   3  61 N5        30.70R WCI   6
HAMILTON       MOCLDY    10   1  67 CALM      30.69R
DAYTON         NOT AVBL
WRIGHT-PAT AFB NOT AVBL
DAYTON GENERAL MOCLDY    13   0  56 E5        30.65R WCI   5
WILMINGTON     MOCLDY     6  -4  63 CALM      30.65R
$$

OHZ036-037-039>041-045>050-054>059-063>069-073>076-082>088-280400-
  CENTRAL AND SOUTHEAST OHIO

CITY           SKY/WX    TMP DP  RH WIND       PRES   REMARKS
COLUMBUS       PTCLDY    11  -2  56 CALM      30.68R
OSU AIRPORT    PTCLDY     8  -2  63 W3        30.67R
BOLTON FIELD   NOT AVBL
RICKENBACK AFB NOT AVBL
NEWARK         PTCLDY     2  -5  72 CALM      30.66R
MARION         MOCLDY     1  -8  66 NW3       30.66R
LANCASTER      PTCLDY     1  -5  75 CALM      30.68R
ZANESVILLE     CLEAR     11  -2  56 CALM      30.66R
NEW PHILLY     CLEAR      6  -3  66 CALM      30.67R
$$


USA.gov is the U.S. government's official web portal to all federal, state and local government web resources and services.